When you browse on this site, cookies collect data to enhance your experience and personalize the content and advertising you see.
Visit our Privacy Policy to learn more. By continuing to use the site, you agree to this use of cookies and data.
  • In United Kingdom
  • List of Countries
  • For 7 days
  • Water Temperature
  • Satellite Maps
  • Weather Map
  • Weather Widgets
  • user-avatar
    Login

    Hourly Weather Sylhet

    Today, 23 January, Wednesday

    Time Temperature Precipitation Wind Pressure Humidity
    00:00 +20°C° 0 mm 1 mps 761 mmHg 63%
    01:00 +19°C° 0 mm 1 mps 761 mmHg 65%
    02:00 +19°C° 0 mm 1 mps 761 mmHg 67%
    03:00 +18°C° 0 mm 1 mps 761 mmHg 69%
    04:00 +18°C° 0 mm 1 mps 761 mmHg 71%
    05:00 +16°C° 0 mm 2 mps 761 mmHg 73%
    06:00 +16°C° 0 mm 1 mps 761 mmHg 75%
    07:00 +18°C° 0 mm 2 mps 761 mmHg 69%
    08:00 +19°C° 0 mm 2 mps 762 mmHg 64%
    09:00 +21°C° 0 mm 2 mps 762 mmHg 59%
    10:00 +24°C° 0 mm 2 mps 762 mmHg 51%
    11:00 +26°C° 0 mm 2 mps 761 mmHg 44%
    12:00 +28°C° 0 mm 1 mps 761 mmHg 38%
    13:00 +29°C° 0 mm 1 mps 761 mmHg 36%
    14:00 +29°C° 0 mm 1 mps 760 mmHg 34%
    15:00 +28°C° 0 mm 0 mps 760 mmHg 31%
    16:00 +28°C° 0 mm 1 mps 760 mmHg 35%
    17:00 +26°C° 0 mm 1 mps 760 mmHg 39%
    18:00 +24°C° 0 mm 1 mps 760 mmHg 43%
    19:00 +23°C° 0 mm 1 mps 760 mmHg 45%
    20:00 +22°C° 0 mm 1 mps 761 mmHg 47%
    21:00 +22°C° 0 mm 1 mps 761 mmHg 49%
    22:00 +21°C° 0 mm 1 mps 761 mmHg 52%
    23:00 +20°C° 0 mm 1 mps 761 mmHg 54%

    Tomorrow, 24 January, Thursday

    Time Temperature Precipitation Wind Pressure Humidity
    00:00 +20°C° 0 mm 1 mps 761 mmHg 56%
    01:00 +19°C° 0 mm 1 mps 761 mmHg 58%
    02:00 +19°C° 0 mm 1 mps 761 mmHg 60%
    03:00 +17°C° 0 mm 2 mps 761 mmHg 62%
    04:00 +17°C° 0 mm 2 mps 761 mmHg 64%
    05:00 +16°C° 0 mm 2 mps 761 mmHg 66%
    06:00 +16°C° 0 mm 2 mps 761 mmHg 67%
    07:00 +18°C° 0 mm 2 mps 761 mmHg 63%
    08:00 +19°C° 0 mm 2 mps 762 mmHg 58%
    09:00 +21°C° 0 mm 2 mps 762 mmHg 54%
    10:00 +24°C° 0 mm 2 mps 762 mmHg 48%
    11:00 +26°C° 0 mm 2 mps 762 mmHg 42%
    12:00 +29°C° 0 mm 1 mps 762 mmHg 36%
    13:00 +29°C° 0 mm 2 mps 761 mmHg 35%
    14:00 +30°C° 0 mm 2 mps 760 mmHg 34%
    15:00 +30°C° 0 mm 3 mps 760 mmHg 33%
    16:00 +28°C° 0 mm 2 mps 760 mmHg 38%
    17:00 +27°C° 0 mm 2 mps 760 mmHg 43%
    18:00 +25°C° 0 mm 1 mps 760 mmHg 48%
    19:00 +24°C° 0 mm 1 mps 760 mmHg 50%
    20:00 +23°C° 0 mm 1 mps 761 mmHg 52%
    21:00 +20°C° 0 mm 0 mps 762 mmHg 54%
    22:00 +22°C° 0 mm 1 mps 761 mmHg 56%
    23:00 +21°C° 0 mm 1 mps 761 mmHg 57%

    Day after tomorrow, 25 January, Friday

    Time Temperature Precipitation Wind Pressure Humidity
    00:00 +21°C° 0 mm 1 mps 761 mmHg 59%
    01:00 +20°C° 0 mm 1 mps 761 mmHg 61%
    02:00 +19°C° 0 mm 2 mps 761 mmHg 64%
    03:00 +18°C° 0 mm 2 mps 760 mmHg 66%
    04:00 +18°C° 0 mm 2 mps 760 mmHg 67%
    05:00 +17°C° 0 mm 2 mps 760 mmHg 69%
    06:00 +17°C° 0 mm 2 mps 761 mmHg 70%
    07:00 +18°C° 0 mm 2 mps 761 mmHg 65%
    08:00 +20°C° 0 mm 2 mps 762 mmHg 59%
    09:00 +23°C° 0 mm 2 mps 763 mmHg 54%
    10:00 +25°C° 0 mm 2 mps 762 mmHg 48%
    11:00 +27°C° 0 mm 2 mps 762 mmHg 42%
    12:00 +29°C° 0 mm 2 mps 761 mmHg 36%
    13:00 +30°C° 0 mm 2 mps 760 mmHg 34%
    14:00 +30°C° 0 mm 1 mps 760 mmHg 32%
    15:00 +31°C° 0 mm 1 mps 759 mmHg 30%
    16:00 +29°C° 0 mm 1 mps 759 mmHg 34%
    17:00 +27°C° 0 mm 1 mps 759 mmHg 38%
    18:00 +25°C° 0 mm 1 mps 760 mmHg 42%
    19:00 +24°C° 0 mm 1 mps 760 mmHg 44%
    20:00 +23°C° 0 mm 1 mps 761 mmHg 46%
    21:00 +22°C° 0 mm 1 mps 762 mmHg 48%
    22:00 +22°C° 0 mm 1 mps 762 mmHg 49%
    23:00 +21°C° 0 mm 1 mps 761 mmHg 51%

    26 January, Saturday

    Time Temperature Precipitation Wind Pressure Humidity
    00:00 +19°C° 0 mm 2 mps 761 mmHg 52%
    01:00 +19°C° 0 mm 2 mps 761 mmHg 54%
    02:00 +18°C° 0 mm 2 mps 761 mmHg 56%
    03:00 +17°C° 0 mm 2 mps 760 mmHg 57%
    04:00 +17°C° 0 mm 2 mps 760 mmHg 59%
    05:00 +16°C° 0 mm 2 mps 760 mmHg 61%
    06:00 +16°C° 0 mm 2 mps 760 mmHg 63%
    07:00 +18°C° 0 mm 2 mps 761 mmHg 59%
    08:00 +20°C° 0 mm 3 mps 762 mmHg 55%
    09:00 +22°C° 0 mm 3 mps 762 mmHg 51%
    10:00 +25°C° 0 mm 3 mps 762 mmHg 43%
    11:00 +27°C° 0 mm 2 mps 761 mmHg 36%
    12:00 +30°C° 0 mm 2 mps 761 mmHg 29%
    13:00 +30°C° 0 mm 2 mps 760 mmHg 26%
    14:00 +31°C° 0 mm 2 mps 760 mmHg 24%
    15:00 +32°C° 0 mm 1 mps 759 mmHg 21%
    16:00 +29°C° 0 mm 1 mps 759 mmHg 25%
    17:00 +27°C° 0 mm 1 mps 760 mmHg 28%
    18:00 +25°C° 0 mm 1 mps 760 mmHg 32%
    19:00 +25°C° 0 mm 1 mps 761 mmHg 33%
    20:00 +24°C° 0 mm 1 mps 761 mmHg 35%
    21:00 +23°C° 0 mm 1 mps 762 mmHg 36%
    22:00 +22°C° 0 mm 1 mps 762 mmHg 38%
    23:00 +21°C° 0 mm 1 mps 761 mmHg 39%

    27 January, Sunday

    Time Temperature Precipitation Wind Pressure Humidity
    00:00 +20°C° 0 mm 1 mps 761 mmHg 41%
    01:00 +19°C° 0 mm 2 mps 761 mmHg 41%
    02:00 +19°C° 0 mm 2 mps 761 mmHg 41%
    03:00 +19°C° 0 mm 2 mps 760 mmHg 41%
    04:00 +18°C° 0 mm 2 mps 761 mmHg 47%
    05:00 +17°C° 0 mm 2 mps 761 mmHg 54%
    06:00 +17°C° 0 mm 2 mps 761 mmHg 60%
    07:00 +18°C° 0 mm 2 mps 762 mmHg 57%
    08:00 +20°C° 0 mm 2 mps 762 mmHg 54%
    09:00 +23°C° 0 mm 2 mps 763 mmHg 50%
    10:00 +25°C° 0 mm 2 mps 763 mmHg 43%
    11:00 +27°C° 0 mm 2 mps 762 mmHg 35%
    12:00 +30°C° 0 mm 2 mps 762 mmHg 28%
    13:00 +30°C° 0 mm 1 mps 761 mmHg 26%
    14:00 +31°C° 0 mm 1 mps 760 mmHg 25%
    15:00 +31°C° 0 mm 1 mps 759 mmHg 23%
    16:00 +29°C° 0 mm 1 mps 759 mmHg 26%
    17:00 +28°C° 0 mm 1 mps 759 mmHg 30%
    18:00 +26°C° 0 mm 1 mps 760 mmHg 33%
    19:00 +26°C° 0 mm 1 mps 760 mmHg 34%
    20:00 +25°C° 0 mm 1 mps 761 mmHg 36%
    21:00 +24°C° 0 mm 1 mps 761 mmHg 37%
    22:00 +24°C° 0 mm 1 mps 761 mmHg 39%
    23:00 +21°C° 0 mm 0 mps 761 mmHg 42%

    28 January, Monday

    Time Temperature Precipitation Wind Pressure Humidity
    00:00 +20°C° 0 mm 0 mps 761 mmHg 44%
    01:00 +20°C° 0 mm 0 mps 760 mmHg 45%
    02:00 +19°C° 0 mm 0 mps 760 mmHg 46%
    03:00 +21°C° 0 mm 1 mps 760 mmHg 47%
    04:00 +21°C° 0 mm 1 mps 760 mmHg 47%
    05:00 +21°C° 0 mm 1 mps 760 mmHg 47%
    06:00 +20°C° 0 mm 1 mps 761 mmHg 48%
    07:00 +21°C° 0 mm 1 mps 761 mmHg 48%
    08:00 +22°C° 0 mm 1 mps 762 mmHg 48%
    09:00 +22°C° 0 mm 1 mps 763 mmHg 48%
    10:00 +23°C° 0 mm 1 mps 762 mmHg 45%
    11:00 +25°C° 0 mm 1 mps 762 mmHg 41%
    12:00 +26°C° 0 mm 1 mps 761 mmHg 38%
    13:00 +27°C° 0 mm 1 mps 761 mmHg 36%
    14:00 +28°C° 0 mm 1 mps 760 mmHg 34%
    15:00 +29°C° 0 mm 1 mps 759 mmHg 32%
    16:00 +27°C° 0 mm 1 mps 759 mmHg 36%
    17:00 +25°C° 0 mm 1 mps 759 mmHg 41%
    18:00 +24°C° 0 mm 1 mps 759 mmHg 46%
    19:00 +23°C° 0 mm 1 mps 760 mmHg 48%
    20:00 +22°C° 0 mm 1 mps 760 mmHg 49%
    21:00 +21°C° 0 mm 1 mps 761 mmHg 51%
    22:00 +21°C° 0 mm 1 mps 761 mmHg 53%
    23:00 +20°C° 0 mm 1 mps 760 mmHg 55%
    Show more